NOAA 16 DEB, 41370

Orbit data source: Space-Track

NOAA 16 DEB, 41370 is space debris in SSO originally from a launch on Thu, 21 Sep 2000 UTC launched from the Air Force Western Test Range (AFWTR). Debris objects in space refer to the collection of defunct objects orbiting the Earth. Examples of debris include non-operational satellites, rocket bodies, and fragments generated from explosions, collisions, or faulty payload assembly.

Loading next visibility...
Identifier
41370, 2000-055JP
Orbit
SSO
Country
Flag of USUS
Related business
Manufacturer
Unknown
Mission
Spacecraft
Bus & Motor
Unknown
Mass
Unknown
Launch date (UTC)
2000-09-21 (26 years ago)
Launch vehicle
Unknown
Launch site
Air Force Western Test Range (AFWTR)
Object type
Payload
Rocket body
Debris
Shape & HBR
Unknown shape, 0.1 m
Radar Cross Section
Small (<0.1 m²)

Expand to show TLE details & history
Last TLE update: 2 days ago

TLE from 2 days ago
0 NOAA 16 DEB
1 41370U 00055JP  26125.29644751  .00592663  00000-0  14200-1 0  9998
2 41370  98.8694  70.7391 0005214 203.0915 157.0093 15.39021701549596
Epoch: 2026-05-05T07:06Z
TLE epoch observation values (Epoch: 2026-05-05T07:06:53.064Z)
Latitude
0.00002°
Longitude
100.84467°
Altitude
455.349 km
Speed
7.638 km/s
True Right ascension
04h 42m 57s
True Declination
0° 00' 00"
Sunlit
Object was in daylight at epoch
Visualization orbit readout
Latitude
Unknown
Longitude
Unknown
Altitude
Unknown
Speed
Unknown
Apparent Right ascension
Unknown
Apparent Declination
Unknown
Sunlit
N/A
Visualization observer readout
Local Sidereal Time
05:42:02
Azimuth
Unknown
Elevation
Unknown
Doppler factor
Unknown
Orbital elements
Apogee altitude
449.569 km
Perigee altitude
442.453 km
Semi-major axis
6,824.148 km
Eccentricity
0.00052
Inclination
98.8694°
RAAN
70.7391°
Arg. of periapsis
203.0915°
True anomaly
157.03262°
Mean anomaly
157.0093°
Eccentric anomaly
157.02096°
Mean motion
3.85009 °/min
Orbital period
93.5 mins
BSTAR
0.0142
Loading maneuver chart data...
Computing Atmospheric mass density...

Documentation

Showing up to 5 results
|